This is the latest recevied weather packets stored in our database for station/object KM4CNW. If no packets are shown the sender has not sent any weather packets the latest 10 day(s).
| Time | Temp. | Humidity | Pressure | Rain* | Wind** | Luminosity | Snow |
|---|---|---|---|---|---|---|---|
| 1777930055 | 26.67° C | 26% | 1007.7 hPa | 0 mm | - | 404 W/m² | - |
| 1777929751 | 27.22° C | 26% | 1007.6 hPa | 0 mm | - | 423 W/m² | - |
| 1777929449 | 26.67° C | 26% | 1007.6 hPa | 0 mm | - | 442 W/m² | - |
| 1777929145 | 26.11° C | 26% | 1007.7 hPa | 0 mm | - | 442 W/m² | - |
| 1777928842 | 26.11° C | 26% | 1007.7 hPa | 0 mm | - | 475 W/m² | - |
| 1777926727 | 26.67° C | 26% | 1007.9 hPa | 0 mm | - | 595 W/m² | - |
| 1777926124 | 27.78° C | 26% | 1008 hPa | 0 mm | - | 571 W/m² | - |
| 1777925518 | 26.67° C | 25% | 1008.4 hPa | 0 mm | - | 657 W/m² | - |
| 1777925215 | 26.11° C | 27% | 1008.3 hPa | 0 mm | - | 671 W/m² | - |
| 1777924912 | 26.11° C | 25% | 1008.4 hPa | 0 mm | - | 687 W/m² | - |
| 1777924304 | 27.22° C | 25% | 1008.3 hPa | 0 mm | - | 704 W/m² | - |
| 1777923697 | 27.22° C | 25% | 1008.4 hPa | 0 mm | - | 740 W/m² | - |
| 1777923091 | 26.67° C | 27% | 1008.8 hPa | 0 mm | - | 763 W/m² | - |
| 1777922789 | 25.56° C | 26% | 1008.7 hPa | 0 mm | - | 775 W/m² | - |
| 1777922185 | 26.67° C | 26% | 1008.7 hPa | 0 mm | - | 795 W/m² | - |
| 1777919756 | 25.56° C | 29% | 1009.3 hPa | 0 mm | - | 870 W/m² | - |
| 1777915519 | 25° C | 28% | 1009.9 hPa | 0 mm | - | 909 W/m² | - |
| 1777912788 | 23.89° C | 27% | 1010.5 hPa | 0 mm | - | 889 W/m² | - |
| 1777911574 | 23.33° C | 31% | 1010.9 hPa | 0 mm | - | 868 W/m² | - |
| 1777910967 | 23.33° C | 29% | 1011.4 hPa | 0 mm | - | 852 W/m² | - |
| 1777910665 | 23.33° C | 32% | 1011.5 hPa | 0 mm | - | 847 W/m² | - |
| 1777909452 | 22.22° C | 32% | 1011.4 hPa | 0 mm | - | 807 W/m² | - |
| 1777909150 | 22.78° C | 32% | 1011.5 hPa | 0 mm | - | 799 W/m² | - |
| 1777908848 | 22.22° C | 33% | 1011.4 hPa | 0 mm | - | 788 W/m² | - |
| 1777908544 | 21.67° C | 32% | 1011.3 hPa | 0 mm | - | 776 W/m² | - |
* Rain latest hour (hover to see other rain measurements)
** Current wind speed in m/s (hover to see current wind gust speed)